Back to catalog

FENGYUN 1C DEB

AliveSSO
NORAD 29843·DEBRIS·🇨🇳 China

Launched May 10, 1999 from Taiyuan Satellite Launch Center

Loading…

Next Passes (next 24 hours)

TLE

FreshSource: Space-Track

Epoch: Sep 14, 2026, 01:45 UTC

1 29843U 99025EM  26257.07330166  .00000513  00000-0  18411-3 0  9996
2 29843  99.0141 110.2297 0190922 212.8003 302.2166 14.28961001 22032

Track FENGYUN 1C DEB in real time with AllMySat

Download on the App Store